When you browse on this site, cookies collect data to enhance your experience and personalize the content and advertising you see.
Visit our Privacy Policy to learn more. By continuing to use the site, you agree to this use of cookies and data.
  • In Hungary
  • List of Countries
  • For 7 days
  • Water Temperature
  • Weather Map
  • News
  • Weather Widgets
  • user-avatar
    Login

    Hourly Weather Yarumal

    Today, 11 December, Wednesday

    Time Temperature Precipitation Wind Pressure Humidity
    00:00 +11°C° 0.3 mm 0 mps 574 mmHg 97%
    01:00 +12°C° 0.3 mm 1 mps 574 mmHg 97%
    02:00 +12°C° 0.1 mm 1 mps 573 mmHg 97%
    03:00 +11°C° 0.1 mm 1 mps 573 mmHg 97%
    04:00 +10°C° 0.1 mm 0 mps 573 mmHg 97%
    05:00 +11°C° 0 mm 0 mps 574 mmHg 96%
    06:00 +11°C° 0 mm 0 mps 574 mmHg 96%
    07:00 +11°C° 0 mm 0 mps 575 mmHg 96%
    08:00 +13°C° 0.1 mm 0 mps 576 mmHg 89%
    09:00 +16°C° 0.1 mm 1 mps 577 mmHg 82%
    10:00 +19°C° 0.1 mm 1 mps 578 mmHg 76%
    11:00 +18°C° 0.8 mm 1 mps 577 mmHg 80%
    12:00 +18°C° 0.8 mm 1 mps 577 mmHg 84%
    13:00 +18°C° 0.8 mm 1 mps 576 mmHg 88%
    14:00 +16°C° 1.3 mm 1 mps 575 mmHg 91%
    15:00 +16°C° 1.3 mm 1 mps 575 mmHg 93%
    16:00 +15°C° 1.3 mm 1 mps 574 mmHg 96%
    17:00 +15°C° 0.6 mm 1 mps 574 mmHg 97%
    18:00 +13°C° 0.6 mm 0 mps 574 mmHg 98%
    19:00 +12°C° 0.6 mm 0 mps 574 mmHg 99%
    20:00 +12°C° 0.1 mm 0 mps 574 mmHg 98%
    21:00 +11°C° 0.1 mm 0 mps 574 mmHg 98%
    22:00 +11°C° 0.1 mm 0 mps 575 mmHg 98%
    23:00 +11°C° 0.1 mm 0 mps 574 mmHg 98%

    Tomorrow, 12 December, Thursday

    Time Temperature Precipitation Wind Pressure Humidity
    00:00 +11°C° 0.1 mm 0 mps 574 mmHg 98%
    01:00 +11°C° 0.1 mm 0 mps 574 mmHg 98%
    02:00 +10°C° 0.1 mm 0 mps 574 mmHg 98%
    03:00 +10°C° 0.1 mm 0 mps 573 mmHg 98%
    04:00 +10°C° 0.1 mm 0 mps 573 mmHg 97%
    05:00 +10°C° 0 mm 0 mps 574 mmHg 97%
    06:00 +10°C° 0 mm 0 mps 574 mmHg 96%
    07:00 +11°C° 0 mm 0 mps 574 mmHg 96%
    08:00 +13°C° 0 mm 0 mps 576 mmHg 87%
    09:00 +16°C° 0 mm 1 mps 577 mmHg 78%
    10:00 +19°C° 0 mm 1 mps 578 mmHg 69%
    11:00 +19°C° 0.6 mm 1 mps 577 mmHg 76%
    12:00 +18°C° 0.6 mm 1 mps 576 mmHg 82%
    13:00 +16°C° 0.6 mm 1 mps 575 mmHg 89%
    14:00 +16°C° 0.8 mm 1 mps 575 mmHg 91%
    15:00 +16°C° 0.8 mm 1 mps 574 mmHg 93%
    16:00 +15°C° 0.8 mm 1 mps 574 mmHg 95%
    17:00 +14°C° 0.2 mm 1 mps 574 mmHg 96%
    18:00 +12°C° 0.2 mm 0 mps 573 mmHg 97%
    19:00 +11°C° 0.2 mm 0 mps 573 mmHg 98%
    20:00 +11°C° 0 mm 0 mps 573 mmHg 98%
    21:00 +10°C° 0 mm 0 mps 574 mmHg 97%
    22:00 +10°C° 0 mm 0 mps 574 mmHg 97%
    23:00 +10°C° 0 mm 0 mps 574 mmHg 97%

    Day after tomorrow, 13 December, Friday

    Time Temperature Precipitation Wind Pressure Humidity
    00:00 +10°C° 0 mm 0 mps 573 mmHg 96%
    01:00 +10°C° 0 mm 1 mps 573 mmHg 96%
    02:00 +10°C° 0 mm 1 mps 573 mmHg 96%
    03:00 +10°C° 0 mm 1 mps 573 mmHg 96%
    04:00 +10°C° 0 mm 1 mps 572 mmHg 95%
    05:00 +10°C° 0 mm 1 mps 573 mmHg 95%
    06:00 +10°C° 0 mm 1 mps 573 mmHg 94%
    07:00 +11°C° 0 mm 1 mps 574 mmHg 93%
    08:00 +13°C° 0 mm 1 mps 575 mmHg 83%
    09:00 +16°C° 0 mm 1 mps 577 mmHg 73%
    10:00 +19°C° 0 mm 1 mps 578 mmHg 62%
    11:00 +19°C° 0.2 mm 1 mps 577 mmHg 66%
    12:00 +19°C° 0.2 mm 1 mps 577 mmHg 69%
    13:00 +19°C° 0.2 mm 1 mps 576 mmHg 73%
    14:00 +18°C° 0.8 mm 1 mps 575 mmHg 81%
    15:00 +16°C° 0.8 mm 1 mps 574 mmHg 89%
    16:00 +14°C° 0.8 mm 0 mps 573 mmHg 97%
    17:00 +13°C° 0.4 mm 0 mps 573 mmHg 97%
    18:00 +12°C° 0.4 mm 0 mps 573 mmHg 98%
    19:00 +11°C° 0.4 mm 0 mps 573 mmHg 98%
    20:00 +11°C° 0.1 mm 0 mps 574 mmHg 98%
    21:00 +11°C° 0.1 mm 0 mps 574 mmHg 97%
    22:00 +11°C° 0.1 mm 0 mps 574 mmHg 97%
    23:00 +10°C° 0 mm 0 mps 574 mmHg 97%

    14 December, Saturday

    Time Temperature Precipitation Wind Pressure Humidity
    00:00 +10°C° 0 mm 0 mps 574 mmHg 97%
    01:00 +10°C° 0 mm 0 mps 573 mmHg 97%
    02:00 +10°C° 0 mm 0 mps 573 mmHg 97%
    03:00 +10°C° 0 mm 0 mps 573 mmHg 97%
    04:00 +10°C° 0 mm 0 mps 573 mmHg 97%
    05:00 +10°C° 0 mm 0 mps 573 mmHg 96%
    06:00 +10°C° 0 mm 0 mps 574 mmHg 96%
    07:00 +10°C° 0 mm 0 mps 574 mmHg 95%
    08:00 +12°C° 0 mm 0 mps 576 mmHg 86%
    09:00 +15°C° 0 mm 1 mps 577 mmHg 77%
    10:00 +18°C° 0 mm 1 mps 578 mmHg 68%
    11:00 +18°C° 0.3 mm 1 mps 577 mmHg 70%
    12:00 +18°C° 0.3 mm 1 mps 577 mmHg 73%
    13:00 +18°C° 0.3 mm 1 mps 576 mmHg 75%
    14:00 +18°C° 0.8 mm 1 mps 575 mmHg 81%
    15:00 +16°C° 0.8 mm 1 mps 574 mmHg 88%
    16:00 +15°C° 0.8 mm 1 mps 574 mmHg 94%
    17:00 +13°C° 0.5 mm 0 mps 574 mmHg 96%
    18:00 +12°C° 0.5 mm 0 mps 574 mmHg 97%
    19:00 +11°C° 0.5 mm 0 mps 574 mmHg 99%
    20:00 +11°C° 0.1 mm 0 mps 574 mmHg 98%
    21:00 +11°C° 0.1 mm 0 mps 575 mmHg 98%
    22:00 +11°C° 0.1 mm 0 mps 575 mmHg 98%
    23:00 +10°C° 0 mm 0 mps 574 mmHg 97%

    15 December, Sunday

    Time Temperature Precipitation Wind Pressure Humidity
    00:00 +10°C° 0 mm 0 mps 574 mmHg 97%
    01:00 +10°C° 0 mm 0 mps 574 mmHg 96%
    02:00 +9°C° 0 mm 0 mps 573 mmHg 95%
    03:00 +10°C° 0 mm 1 mps 573 mmHg 94%
    04:00 +9°C° 0 mm 1 mps 573 mmHg 92%
    05:00 +10°C° 0 mm 1 mps 573 mmHg 91%
    06:00 +10°C° 0 mm 1 mps 574 mmHg 90%
    07:00 +10°C° 0 mm 1 mps 574 mmHg 89%
    08:00 +13°C° 0 mm 1 mps 576 mmHg 78%
    09:00 +15°C° 0 mm 1 mps 577 mmHg 68%
    10:00 +19°C° 0 mm 1 mps 579 mmHg 57%
    11:00 +20°C° 0 mm 1 mps 578 mmHg 58%
    12:00 +20°C° 0 mm 1 mps 578 mmHg 58%
    13:00 +20°C° 0 mm 2 mps 577 mmHg 58%
    14:00 +18°C° 0.3 mm 2 mps 576 mmHg 68%
    15:00 +18°C° 0.3 mm 1 mps 575 mmHg 78%
    16:00 +16°C° 0.3 mm 1 mps 574 mmHg 88%
    17:00 +15°C° 0.2 mm 1 mps 574 mmHg 92%
    18:00 +14°C° 0.2 mm 1 mps 574 mmHg 96%
    19:00 +12°C° 0.2 mm 0 mps 574 mmHg 99%
    20:00 +12°C° 0 mm 0 mps 574 mmHg 99%
    21:00 +11°C° 0 mm 0 mps 575 mmHg 99%
    22:00 +11°C° 0 mm 0 mps 575 mmHg 98%
    23:00 +11°C° 0 mm 0 mps 574 mmHg 98%

    16 December, Monday

    Time Temperature Precipitation Wind Pressure Humidity
    00:00 +10°C° 0 mm 0 mps 574 mmHg 97%
    01:00 +10°C° 0 mm 0 mps 574 mmHg 96%
    02:00 +10°C° 0 mm 1 mps 573 mmHg 96%
    03:00 +10°C° 0 mm 1 mps 573 mmHg 96%
    04:00 +10°C° 0 mm 1 mps 573 mmHg 95%
    05:00 +10°C° 0 mm 1 mps 573 mmHg 95%
    06:00 +10°C° 0 mm 1 mps 574 mmHg 94%
    07:00 +11°C° 0 mm 1 mps 574 mmHg 93%
    08:00 +13°C° 0 mm 1 mps 576 mmHg 81%
    09:00 +16°C° 0 mm 1 mps 577 mmHg 70%
    10:00 +20°C° 0 mm 1 mps 579 mmHg 58%
    11:00 +20°C° 0 mm 1 mps 578 mmHg 59%
    12:00 +20°C° 0 mm 2 mps 578 mmHg 60%
    13:00 +20°C° 0 mm 2 mps 577 mmHg 60%
    14:00 +19°C° 0.5 mm 2 mps 576 mmHg 71%
    15:00 +18°C° 0.5 mm 1 mps 575 mmHg 82%
    16:00 +16°C° 0.5 mm 1 mps 574 mmHg 92%
    17:00 +15°C° 0.3 mm 1 mps 574 mmHg 95%
    18:00 +13°C° 0.3 mm 0 mps 574 mmHg 97%
    19:00 +12°C° 0.3 mm 0 mps 574 mmHg 99%
    20:00 +12°C° 0.1 mm 0 mps 574 mmHg 99%
    21:00 +12°C° 0.1 mm 0 mps 574 mmHg 99%
    22:00 +12°C° 0.1 mm 0 mps 575 mmHg 99%
    23:00 +12°C° 0.1 mm 0 mps 574 mmHg 98%
    Show more